Retour au catalogue

THORAD DELTA 1 DEB

ActifSSO
NORAD 8311·DEBRIS·🇺🇸 United States

Lancé Nov 15, 1974 depuis Vandenberg Space Force Base

Loading…

Prochains Passages (prochaines 24 heures)

TLE

FraisSource: Space-Track

Époque: Sep 14, 2026, 08:48 UTC

1 08311U 74089BU  26257.36734998 -.00000040  00000-0  45758-4 0  9990
2 08311 102.1724 232.6071 0036222 202.5433 329.3951 12.45553855356332

Suivez THORAD DELTA 1 DEB en temps réel avec AllMySat

Download on the App Store